This is the latest recevied weather packets stored in our database for station/object N5JXS. If no packets are shown the sender has not sent any weather packets the latest 10 day(s).
| Time | Temp. | Humidity | Pressure | Rain* | Wind** | Luminosity | Snow |
|---|---|---|---|---|---|---|---|
| 1787880456 | 21.67° C | 44% | 1029.8 hPa | 0 mm | - | 4 W/m² | - |
| 1787880151 | 21.67° C | 43% | 1029.5 hPa | 0 mm | - | 6 W/m² | - |
| 1787879851 | 22.22° C | 43% | 1029.7 hPa | 0 mm | - | 10 W/m² | - |
| 1787879546 | 22.22° C | 41% | 1029.1 hPa | 0 mm | - | 18 W/m² | - |
| 1787879242 | 22.78° C | 41% | 1029.2 hPa | 0 mm | - | 36 W/m² | - |
| 1787878939 | 22.78° C | 41% | 1030.3 hPa | 0 mm | - | 56 W/m² | - |
| 1787878638 | 22.78° C | 40% | 1030.5 hPa | 0 mm | - | 62 W/m² | - |
| 1787878333 | 22.78° C | 41% | 1030.6 hPa | 0 mm | - | 63 W/m² | - |
| 1787878028 | 22.78° C | 42% | 1030.7 hPa | 0 mm | - | 75 W/m² | - |
| 1787877724 | 22.22° C | 43% | 1030.5 hPa | 0 mm | - | 76 W/m² | - |
| 1787877419 | 21.67° C | 45% | 1030.8 hPa | 0 mm | - | 71 W/m² | - |
| 1787877115 | 21.11° C | 50% | 1030.6 hPa | 0 mm | - | 84 W/m² | - |
| 1787876815 | 21.11° C | 48% | 1030.6 hPa | 0 mm | - | 48 W/m² | - |
| 1787876510 | 21.67° C | 48% | 1030.7 hPa | 0 mm | - | 22 W/m² | - |
| 1787876209 | 21.67° C | 47% | 1030.5 hPa | 0 mm | - | 16 W/m² | - |
| 1787875903 | 22.22° C | 44% | 1030.5 hPa | 0 mm | - | 21 W/m² | - |
| 1787875598 | 22.78° C | 44% | 1030.3 hPa | 0 mm | - | 26 W/m² | - |
| 1787875298 | 22.78° C | 44% | 1030.3 hPa | 0 mm | - | 33 W/m² | - |
| 1787874996 | 22.78° C | 42% | 1030.1 hPa | 0 mm | - | 43 W/m² | - |
| 1787874691 | 23.33° C | 40% | 1030 hPa | 0 mm | - | 53 W/m² | - |
| 1787874389 | 23.33° C | 38% | 1030.3 hPa | 0 mm | - | 62 W/m² | - |
| 1787874085 | 23.33° C | 38% | 1030.2 hPa | 0 mm | - | 70 W/m² | - |
| 1787873784 | 23.89° C | 38% | 1030.2 hPa | 0 mm | - | 83 W/m² | - |
| 1787873480 | 23.89° C | 37% | 1030 hPa | 0 mm | - | 98 W/m² | - |
| 1787873175 | 24.44° C | 37% | 1030 hPa | 0 mm | - | 117 W/m² | - |
* Rain latest hour (hover to see other rain measurements)
** Current wind speed in m/s (hover to see current wind gust speed)